Weather History for KF05 - May, 2014

Change the Weather History Date:

Monday, May 5, 2014

  Actual Average (KLTS) Record (KLTS)
Temperature  
Mean Temperature 86 °F -  
Max Temperature 105 °F 79 °F - (-1)
Min Temperature 66 °F 55 °F - (-1)
Cooling Degree Days 20    
Growing Degree Days 36 (Base 50)    
Moisture  
Dew Point 34 °F    
Average Humidity 17    
Maximum Humidity 31    
Minimum Humidity 5    
Precipitation  
Precipitation 0.00 in - - ()
Sea Level Pressure  
Sea Level Pressure 29.74 in    
Wind  
Wind Speed 13 mph (South)    
Max Wind Speed 22 mph    
Max Gust Speed 26 mph    
Visibility 10 miles    
Events      
Averages and records for this station are not official NWS values.
T = Trace of Precipitation, MM = Missing Value Source: NWS Daily Summary

Daily Weather History Graph

Daily Weather History Graph

Search for Another Location

Airport or City:

Trip Planner

Search our weather history database for the weather conditions in past years. The results will help you decide how hot, cold, wet, or windy it might be!

Date:

Astronomy

May. 05, 2014 Rise Set
Actual Time 6:43 AM CDT 8:24 PM CDT
Civil Twilight 6:16 AM CDT 8:51 PM CDT
Nautical Twilight 5:44 AM CDT 9:24 PM CDT
Astronomical Twilight 5:09 AM CDT 9:58 PM CDT
Moon 12:03 PM CDT (5/5) 1:10 AM CDT (5/5)
Length of Visible Light 14h 34m
Length of Day
13h 40m
Waxing Crescent, 37% of the Moon is Illuminated
May 5
Waxing Crescent
May 6
First Quarter
May 14
Full
May 21
Last Quarter
May 28
New

Hourly Weather History & Observations

Time (CDT) Temp. Dew Point Humidity Pressure Visibility Wind Dir Wind Speed Gust Speed Precip Events Conditions
12:15 AM 80.6 °F 29.3 °F 15% 29.81 in 10.0 mi South 16.1 mph - N/A   Clear
12:35 AM 79.9 °F 30.0 °F 16% 29.81 in 10.0 mi South 18.4 mph 21.9 mph N/A   Clear
12:55 AM 79.3 °F 30.2 °F 17% 29.82 in 10.0 mi South 16.1 mph - N/A   Clear
1:15 AM 78.3 °F 30.2 °F 17% 29.82 in 10.0 mi South 15.0 mph 19.6 mph N/A   Clear
1:35 AM 76.8 °F 30.7 °F 19% 29.82 in 10.0 mi South 11.5 mph - N/A   Clear
1:55 AM 75.7 °F 31.1 °F 19% 29.82 in 10.0 mi South 10.4 mph 17.3 mph N/A   Clear
2:15 AM 75.4 °F 31.5 °F 20% 29.82 in 10.0 mi SSW 11.5 mph - N/A   Clear
2:35 AM 75.7 °F 31.5 °F 20% 29.81 in 10.0 mi SSW 12.7 mph - N/A   Clear
2:55 AM 75.7 °F 31.5 °F 20% 29.81 in 10.0 mi SSW 13.8 mph - N/A   Clear
3:15 AM 75.0 °F 31.6 °F 20% 29.81 in 10.0 mi SSW 11.5 mph - N/A   Clear
3:35 AM 73.2 °F 32.0 °F 22% 29.81 in 10.0 mi South 10.4 mph - N/A   Clear
3:55 AM 70.7 °F 32.0 °F 24% 29.81 in 10.0 mi South 9.2 mph - N/A   Clear
4:15 AM 70.7 °F 32.0 °F 24% 29.81 in 10.0 mi SSW 9.2 mph - N/A   Clear
4:35 AM 72.9 °F 31.5 °F 22% 29.81 in 10.0 mi SSW 11.5 mph 17.3 mph N/A   Clear
4:55 AM 72.9 °F 31.1 °F 21% 29.81 in 10.0 mi SSW 11.5 mph - N/A   Clear
5:15 AM 72.1 °F 31.1 °F 22% 29.80 in 10.0 mi SSW 11.5 mph - N/A   Clear
5:35 AM 71.2 °F 31.3 °F 23% 29.80 in 10.0 mi SSW 11.5 mph - N/A   Clear
5:55 AM 70.3 °F 31.6 °F 24% 29.80 in 10.0 mi SSW 10.4 mph - N/A   Clear
6:15 AM 70.0 °F 31.6 °F 24% 29.80 in 10.0 mi South 12.7 mph - N/A   Clear
6:35 AM 69.6 °F 32.0 °F 25% 29.80 in 10.0 mi South 11.5 mph - N/A   Clear
6:55 AM 68.5 °F 32.4 °F 26% 29.81 in 10.0 mi SSW 9.2 mph - N/A   Clear
7:15 AM 67.3 °F 33.3 °F 28% 29.84 in 10.0 mi Calm Calm - N/A   Clear
7:35 AM 66.4 °F 34.2 °F 30% 29.83 in 10.0 mi South 3.5 mph - N/A   Clear
7:55 AM 67.1 °F 35.4 °F 31% 29.84 in 10.0 mi SSW 4.6 mph - N/A   Clear
8:15 AM 69.6 °F 35.8 °F 29% 29.84 in 10.0 mi SSW 6.9 mph - N/A   Clear
8:35 AM 71.6 °F 36.3 °F 28% 29.82 in 10.0 mi SSW 12.7 mph - N/A   Clear
8:55 AM 74.5 °F 37.2 °F 26% 29.82 in 10.0 mi SSW 12.7 mph - N/A   Clear
9:15 AM 77.0 °F 36.7 °F 23% 29.82 in 10.0 mi SSW 16.1 mph 20.7 mph N/A   Clear
9:35 AM 79.0 °F 36.3 °F 21% 29.81 in 10.0 mi SW 15.0 mph 26.5 mph N/A   Clear
9:55 AM 80.8 °F 36.1 °F 20% 29.81 in 10.0 mi SSW 16.1 mph 23.0 mph N/A   Clear
10:15 AM 82.0 °F 36.7 °F 20% 29.81 in 10.0 mi SW 15.0 mph 19.6 mph N/A   Clear
10:35 AM 83.7 °F 36.7 °F 19% 29.81 in 10.0 mi SW 15.0 mph - N/A   Clear
10:55 AM 85.5 °F 36.9 °F 18% 29.81 in 10.0 mi SSW 15.0 mph - N/A   Clear
11:15 AM 86.9 °F 37.0 °F 17% 29.80 in 10.0 mi SSW 12.7 mph 17.3 mph N/A   Clear
11:35 AM 89.1 °F 36.9 °F 16% 29.80 in 10.0 mi SSW 13.8 mph 17.3 mph N/A   Clear
11:55 AM 91.0 °F 36.3 °F 15% 29.79 in 10.0 mi SSW 10.4 mph 18.4 mph N/A   Clear
12:15 PM 93.2 °F 36.0 °F 13% 29.78 in 10.0 mi SW 12.7 mph 18.4 mph N/A   Clear
12:35 PM 94.8 °F 35.2 °F 12% 29.77 in 10.0 mi South 10.4 mph 17.3 mph N/A   Clear
12:55 PM 96.3 °F 35.4 °F 12% 29.76 in 10.0 mi South 10.4 mph 17.3 mph N/A   Clear
1:15 PM 97.2 °F 36.1 °F 12% 29.76 in 10.0 mi South 15.0 mph 19.6 mph N/A   Clear
1:35 PM 98.1 °F 35.2 °F 11% 29.75 in 10.0 mi SSW 11.5 mph - N/A   Clear
1:55 PM 99.3 °F 34.3 °F 10% 29.73 in 10.0 mi South 12.7 mph 17.3 mph N/A   Clear
2:15 PM 100.8 °F 34.0 °F 10% 29.72 in 10.0 mi SSW 12.7 mph 20.7 mph N/A   Clear
2:35 PM 101.8 °F 33.3 °F 9% 29.71 in 10.0 mi South 12.7 mph 18.4 mph N/A   Clear
2:55 PM 102.6 °F 33.6 °F 9% 29.70 in 10.0 mi SSW 15.0 mph 21.9 mph N/A   Clear
3:15 PM 103.6 °F 32.2 °F 8% 29.69 in 10.0 mi South 16.1 mph 19.6 mph N/A   Clear
3:35 PM 104.0 °F 30.9 °F 8% 29.68 in 10.0 mi South 15.0 mph 20.7 mph N/A   Clear
3:55 PM 104.5 °F 27.5 °F 7% 29.67 in 10.0 mi SSW 13.8 mph 17.3 mph N/A   Clear
4:15 PM 105.1 °F 25.0 °F 6% 29.66 in 10.0 mi South 18.4 mph 24.2 mph N/A   Clear
4:35 PM 105.1 °F 24.6 °F 6% 29.65 in 10.0 mi South 12.7 mph 19.6 mph N/A   Clear
4:55 PM 105.1 °F 24.8 °F 6% 29.64 in 10.0 mi South 11.5 mph 20.7 mph N/A   Clear
5:15 PM 104.9 °F 21.7 °F 5% 29.63 in 10.0 mi South 13.8 mph 19.6 mph N/A   Clear
5:35 PM 104.4 °F 22.3 °F 5% 29.62 in 10.0 mi SSE 13.8 mph - N/A   Clear
5:55 PM 104.4 °F 22.6 °F 6% 29.62 in 10.0 mi South 11.5 mph - N/A   Clear
6:15 PM 104.4 °F 21.7 °F 5% 29.61 in 10.0 mi South 17.3 mph - N/A   Clear
6:35 PM 103.5 °F 20.1 °F 5% 29.61 in 10.0 mi SSE 15.0 mph - N/A   Clear
6:55 PM 102.7 °F 19.4 °F 5% 29.61 in 10.0 mi SSE 10.4 mph - N/A   Clear
7:15 PM 101.5 °F 25.3 °F 7% 29.61 in 10.0 mi SSE 16.1 mph 19.6 mph N/A   Clear
7:35 PM 99.3 °F 39.4 °F 13% 29.60 in 10.0 mi SSE 20.7 mph 24.2 mph N/A   Clear
7:55 PM 97.3 °F 40.1 °F 14% 29.61 in 10.0 mi SSE 16.1 mph 21.9 mph N/A   Clear
8:15 PM 95.7 °F 39.4 °F 14% 29.61 in 10.0 mi SSE 13.8 mph - N/A   Clear
8:35 PM - - N/A% 29.62 in 10.0 mi SSE 10.4 mph - N/A   Unknown
8:55 PM 91.6 °F 40.1 °F 17% 29.63 in 10.0 mi SSE 12.7 mph - N/A   Clear
9:15 PM 91.4 °F 40.3 °F 17% 29.64 in 10.0 mi SSE 13.8 mph - N/A   Clear
9:35 PM 90.5 °F 41.9 °F 18% 29.64 in 10.0 mi SSE 15.0 mph - N/A   Clear
9:55 PM 89.2 °F 44.2 °F 21% 29.65 in 10.0 mi SSE 18.4 mph 25.3 mph N/A   Clear
10:15 PM 88.5 °F 46.6 °F 23% 29.66 in 10.0 mi SSE 17.3 mph 21.9 mph N/A   Clear
10:35 PM 87.6 °F 47.8 °F 25% 29.67 in 10.0 mi SSE 16.1 mph 21.9 mph N/A   Clear
10:55 PM 86.9 °F 48.4 °F 26% 29.67 in 10.0 mi SSE 21.9 mph - N/A   Clear
11:15 PM 86.0 °F 48.7 °F 27% 29.67 in 10.0 mi SSE 18.4 mph 23.0 mph N/A   Clear
11:35 PM 84.9 °F 48.7 °F 28% 29.67 in 10.0 mi SSE 19.6 mph 24.2 mph N/A   Clear